Cosmos 1076 Rocket - Orbit

View from above orbital plane
View from above orbital plane
View from above satellite
View from above satellite

Ground track
Ground track

The orbit data is extracted from the following two-line orbital elements,

1 11267U 79011B   13169.15484828  .00000250  00000-0  24592-4 0  1204
2 11267 082.5247 166.9437 0018127 046.9675 005.5695 14.87725292858298
Epoch (UTC): 18 June 2013 03:42:58
Eccentricity: 0.0018127
inclination: 82.5247°
perigee height: 592 km
apogee height: 618 km
right ascension of ascending node: 166.9437°
argument of perigee: 46.9675°
revolutions per day: 14.87725292
mean anomaly at epoch: 5.5695°
orbit number at epoch: 85829

The dashed part of the orbit path shows where the satellite is in the earth's shadow,  

Developed and maintained by Chris Peat, Heavens-Above GmbH. Please read the updated FAQ before sending e-mail. Imprint. DLR